Retour au catalogue

DMSP 5D-2 F11 DEB

ActifPO
NORAD 28325·DEBRIS·🇺🇸 United States

Lancé Nov 28, 1991 depuis Vandenberg Space Force Base

Loading…

Prochains Passages (prochaines 24 heures)

TLE

FraisSource: Space-Track

Époque: Sep 14, 2026, 16:15 UTC

1 28325U 91082AN  26257.67772581  .00030749  00000-0  31467-2 0  9991
2 28325  98.5591 155.0880 0019477 188.2007 201.7419 14.90313657156162

Suivez DMSP 5D-2 F11 DEB en temps réel avec AllMySat

Download on the App Store